Home > Weather > Tel Aviv > Past weeks

Flag for Israel Past Weather in Tel Aviv, Israel — Yesterday and Last 2 Weeks

Now
79 °F

Passing clouds.


Feels Like: 82 °F
Forecast: 80 / 88 °F
Wind: 7 mph from South

Location: Ben Gurion International Airport

Current Time: Jul 25, 2016 at 3:26:14 AM

Latest Report: Jul 25, 2016 at 2:50 AM


Visibility: N/A

Pressure: 29.65 "Hg

Humidity: 79%

Dew Point: 72 °F

Location of Tel AvivLocation

Past Weather in Tel Aviv — Graph

°F

Tel Aviv Temperature Yesterday

Maximum temperature yesterday: 88 °F (at 11:50 AM)
Minimum temperature yesterday: 75 °F (at 4:20 AM)
Average temperature yesterday: 82 °F

High & Low Weather Summary for the Past Weeks

 TemperatureHumidityPressure
High91 °F (Jul 13, 10:20 AM)89% (Jul 11, 3:20 AM)29.89 "Hg (Jul 11, 3:20 AM)
Low73 °F (Jul 22, 5:20 AM)33% (Jul 21, 4:50 PM)29.65 "Hg (Jul 19, 11:20 AM)
Average82 °F64%29.76 "Hg
* Reported Jul 10 2:20 AM — Jul 25 2:20 AM, Tel Aviv, Weather by CustomWeather, © 2016

Note: Actual official high and low records may vary slightly from our data, if they occured in-between our weather recording intervals... More about our weather records

Advertising

Tel Aviv Weather History for the Previous 24 Hours

Scroll right to see more
 ConditionsComfort  
Time TempWeatherWind HumidityBarometerVisibility
2:20 AM
Mon, Jul 25
79 °FPassing clouds.6 mph79%29.65 "HgN/A
1:50 AM79 °FPassing clouds.6 mph79%29.65 "HgN/A
1:20 AM79 °FPassing clouds.5 mph79%29.68 "HgN/A
12:50 AM81 °FPassing clouds.5 mph79%29.68 "HgN/A
12:20 AM81 °FPassing clouds.5 mph79%29.68 "HgN/A
11:50 PM
Sun, Jul 24
81 °FPassing clouds.5 mph74%29.68 "HgN/A
11:20 PM81 °FPassing clouds.6 mph74%29.68 "HgN/A
10:50 PM81 °FPassing clouds.6 mph79%29.68 "HgN/A
10:20 PM81 °FPassing clouds.6 mph74%29.68 "HgN/A
9:50 PM81 °FPassing clouds.6 mph74%29.68 "HgN/A
9:20 PM81 °FPassing clouds.3 mph74%29.68 "HgN/A
8:50 PM81 °FPassing clouds.5 mph74%29.68 "HgN/A
8:20 PM82 °FPassing clouds.6 mph70%29.68 "HgN/A
7:50 PM82 °FPassing clouds.6 mph70%29.65 "HgN/A
7:20 PM82 °FPassing clouds.7 mph70%29.65 "HgN/A
6:50 PM84 °FPassing clouds.8 mph66%29.65 "HgN/A
6:20 PM84 °FScattered clouds.7 mph66%29.65 "HgN/A
5:50 PM86 °FScattered clouds.8 mph62%29.65 "HgN/A
5:20 PM86 °FPassing clouds.9 mph59%29.65 "HgN/A
4:50 PM86 °FPassing clouds.10 mph59%29.65 "HgN/A
4:20 PM86 °FScattered clouds.10 mph59%29.68 "HgN/A
3:50 PM86 °FScattered clouds.13 mph59%29.68 "HgN/A
3:20 PM86 °FPartly sunny.13 mph59%29.68 "HgN/A
2:50 PM86 °FScattered clouds.13 mph55%29.68 "HgN/A
2:20 PM86 °FScattered clouds.13 mph55%29.68 "HgN/A
1:50 PM88 °FScattered clouds.13 mph55%29.68 "HgN/A
1:20 PM88 °FPassing clouds.13 mph52%29.68 "HgN/A
12:50 PM86 °FPassing clouds.13 mph55%29.68 "HgN/A
12:20 PM86 °FPassing clouds.14 mph55%29.68 "HgN/A
11:50 AM88 °FScattered clouds.13 mph55%29.68 "HgN/A
11:20 AM86 °FScattered clouds.10 mph55%29.68 "HgN/A
10:50 AM86 °FScattered clouds.8 mph55%29.71 "HgN/A
10:20 AM84 °FScattered clouds.7 mph55%29.71 "HgN/A
9:50 AM84 °FScattered clouds.6 mph55%29.71 "HgN/A
9:20 AM84 °FScattered clouds.6 mph55%29.71 "HgN/A
8:50 AM81 °FScattered clouds.6 mph62%29.71 "HgN/A
8:20 AM81 °FPartly sunny.8 mph62%29.71 "HgN/A
7:50 AM79 °FPartly sunny.8 mph61%29.71 "HgN/A
7:20 AM77 °FScattered clouds.7 mph65%29.71 "HgN/A
6:50 AM77 °FPassing clouds.7 mph65%29.71 "HgN/A
6:20 AM75 °FClear.6 mph69%29.71 "Hg10 mi
5:50 AM75 °FPassing clouds.1 mph69%29.71 "HgN/A
5:20 AM75 °FPassing clouds.6 mph69%29.71 "HgN/A
4:50 AM75 °FClear.6 mph74%29.71 "Hg10 mi
4:20 AM75 °FClear.5 mph74%29.71 "Hg10 mi
3:50 AM77 °FClear.6 mph65%29.71 "Hg10 mi
3:20 AM77 °FPassing clouds.7 mph65%29.71 "HgN/A
Weather by CustomWeather, © 2016

See weather overviewHow to use our weather pages